Location: Julian
(33.0787°N, 116.6020°W)
Time: 00:48:15
(UTC+00:00)

Daily predictions for brighter satellites

Satellite Brightness Start Highest point End
(mag) Time Altitude Azimuth Time Altitude Azimuth Time Altitude Azimuth
Feng Yun 1-1 Rocket 4.5 03:02:18 10° S 03:07:50 77° WSW 03:13:16 10° NNW
Cosmos 1500 Rocket 4.0 03:04:20 10° NNW 03:08:42 67° W 03:13:05 10° S
Cosmos 2227 Rocket 3.6 03:04:42 10° N 03:09:03 22° ENE 03:13:23 10° ESE
Cosmos 1980 Rocket 3.4 03:07:16 10° SSE 03:11:24 21° E 03:15:33 10° NE
Cosmos 1400 Rocket 3.1 03:08:47 10° NNW 03:12:39 71° W 03:16:34 10° S
Cosmos 1812 4.1 03:11:56 10° SSW 03:15:33 42° W 03:19:11 10° N
Cosmos 1328 Rocket 4.1 03:14:35 10° SSE 03:18:33 38° E 03:22:33 10° NNE
H-2A R/B 2.7 03:15:23 10° NE 03:19:03 31° E 03:22:44 10° SSE
Cosmos 1570 Rocket 4.4 03:15:37 10° N 03:20:39 46° ENE 03:25:42 10° SE
Cosmos 1486 Rocket 4.4 03:16:35 10° S 03:21:34 44° ESE 03:26:34 10° NNE
Cosmos 2369 4.4 03:16:43 10° SSE 03:21:38 32° ESE 03:26:34 10° NE
Cosmos 1814 Rocket 4.0 03:18:01 10° N 03:23:07 68° ENE 03:28:13 10° SSE
MetOp-A 3.9 03:22:07 10° SE 03:25:59 42° ENE 03:29:41 10° N
Cosmos 841 Rocket 4.3 03:23:44 10° NNW 03:28:43 52° WSW 03:33:44 10° S
Cosmos 1697 Rocket 2.7 03:24:11 10° SSW 03:29:47 72° ESE 03:35:27 10° NNE
CZ-4B R/B 2.6 03:28:58 10° NE 03:31:26 21° E 03:33:28 12° SE
Cosmos 2098 Rocket 3.8 03:30:27 10° NNW 03:33:11 34° W 03:35:49 10° SSW
USA 186 1.1 03:31:20 10° S 03:33:47 75° W 03:36:09 10° NNW
Gbstr 26 Del rocket 4.2 03:28:01 10° NW 03:35:30 87° SW 03:41:07 13° SE
deb Chang Zheng 4 4.2 03:31:29 10° S 03:35:31 54° W 03:39:34 10° NNW
Cosmos 2360 4.2 03:31:00 10° SSW 03:36:39 78° ESE 03:42:21 10° NNE
CSL-04 Debris 4.3 03:31:18 10° SSE 03:36:44 84° WSW 03:42:10 10° NNW
OBJECT-B 1.9 03:34:23 10° S 03:37:07 38° W 03:39:52 10° NNW
Cosmos 1151 Rocket 3.3 03:33:35 10° SSW 03:37:50 69° W 03:42:05 10° N
JB-3 4.5 03:37:19 10° NNE 03:41:25 60° E 03:45:29 10° S
Cosmos 1340 3.4 03:40:46 11° SSE 03:43:57 32° E 03:47:19 10° NNE
COBE Rocket 4.0 03:39:48 10° SSE 03:44:52 65° ENE 03:49:50 10° N
CZ-4 R/B 3.9 03:42:26 10° SW 03:45:26 20° W 03:48:29 10° NW
Cosmos 2297 Rocket 2.2 03:40:28 10° NNW 03:46:07 72° ENE 03:51:08 13° SSE
ATLAS 2AS CENTAUR R/B 3.2 03:39:05 10° S 03:46:28 48° ESE 03:53:46 10° NE
Resurs 1-3 3.6 03:46:17 11° SSE 03:50:25 69° ENE 03:54:47 10° N
Cosmos 1503 Rocket 4.3 03:45:55 10° S 03:50:55 47° ESE 03:55:59 10° NNE
SJ-6B 3.1 03:47:27 10° S 03:51:15 62° W 03:54:59 10° NNW
Cosmos 1666 Rocket 3.5 03:47:51 10° N 03:52:17 87° E 03:56:43 10° S
H-2A R/B 3.0 03:48:42 10° S 03:53:04 62° WSW 03:57:19 10° NNW
SJ 16-02 2.3 03:52:33 18° SE 03:54:48 27° E 03:58:30 10° NE
Cosmos 1315 Rocket 2.8 03:52:07 10° N 03:56:10 87° W 03:59:46 12° S
SL-16 R/B 4.0 04:00:33 12° E 04:00:33 12° E 04:02:04 10° ENE
Cosmos 1633 Rocket 3.0 03:55:48 10° N 04:00:11 86° E 04:03:56 14° S
ATLAS 5 CENTAUR R/B 3.4 03:48:53 10° W 04:02:13 27° SSW 04:06:10 15° SSE
Cosmos 1072 Rocket 4.4 03:57:18 10° S 04:03:17 63° E 04:09:19 10° NNE
Cosmos 1743 3.6 04:00:47 10° NNE 04:04:09 30° E 04:05:10 26° ESE
SPOT 1/Viking Rocket 4.1 04:02:44 21° SE 04:05:39 40° ENE 04:10:27 10° N
Cosmos 1470 Rocket 3.5 04:07:37 10° N 04:11:54 64° E 04:14:11 26° SSE
Meteor 1-27 Rocket 3.8 04:09:36 10° S 04:15:20 86° W 04:21:13 10° N
OAO 3 Rocket 3.3 04:11:22 10° WNW 04:16:17 78° N 04:19:18 24° E
DASH 3.8 04:02:32 10° W 04:16:46 45° SSW 04:18:48 27° SSE
Resurs 01 Rocket 1.6 04:16:57 29° SSE 04:19:08 68° ENE 04:23:30 10° N
Cosmos 1515 Rocket 3.6 04:14:57 10° S 04:19:17 77° W 04:23:41 10° N
Cosmos 2278 3.8 04:14:37 10° S 04:20:05 54° ESE 04:25:36 10° NNE
NOSS 3-2 (C) 4.5 04:13:31 10° NW 04:21:30 67° WSW 04:28:22 18° SSE
Ariane Rocket 3.1 04:20:59 30° SE 04:23:20 57° ENE 04:28:19 10° N
Terra 3.9 04:23:27 12° ENE 04:24:02 12° ENE 04:25:49 10° NE
Cosmos 2219 3.1 04:20:13 10° NNW 04:25:52 88° WSW 04:28:56 28° SSE
CENTAUR R/B 4.3 04:17:59 10° NW 04:26:01 42° WSW 04:34:18 10° S
Cosmos 921 Rocket 3.8 04:24:37 10° N 04:28:47 36° ENE 04:29:35 33° E
Landsat 7 4.4 04:26:48 17° S 04:30:15 54° W 04:34:53 10° NNW
Cosmos 2034 Rocket 4.0 04:27:22 20° S 04:31:48 69° E 04:38:05 10° NNE
CARTOSAT-1 4.1 04:31:39 37° E 04:32:20 40° ENE 04:36:22 10° N
Cosmos 2082 4.0 04:26:58 10° N 04:32:26 50° ENE 04:34:24 35° ESE
Cosmos 2263 Rocket 3.5 04:30:01 10° N 04:34:30 24° ENE 04:35:57 22° E
Cosmos 2228 Rocket 3.4 04:36:11 43° ESE 04:36:45 46° E 04:41:06 10° NNE
Meteor 1-11 Rocket 4.1 04:30:53 10° NNW 04:36:49 69° W 04:40:52 21° S
Okean 1 3.2 04:37:50 55° SSE 04:38:33 72° E 04:42:33 10° N
Cosmos 1869 Rocket 4.4 04:36:12 10° NNE 04:40:17 34° E 04:40:20 34° E
Cosmos 1184 Rocket 4.3 04:39:41 20° SW 04:41:07 32° W 04:43:52 10° NNW
Cosmos 1536 3.2 04:39:13 10° NNW 04:43:12 60° W 04:44:32 37° SSW
RESURS DK-1 2.5 04:40:29 15° SSW 04:43:51 70° WNW 04:47:58 10° NNE
ASTRO E2 3.4 04:43:00 10° W 04:46:10 38° SW 04:46:10 38° SW
SL-4 R/B 2.1 04:44:25 10° NW 04:48:53 67° NE 04:49:24 60° E
BREEZE-M DEB (TANK) 4.4 04:46:02 10° WNW 04:49:36 39° SW 04:51:25 30° S
USA 245 4.4 04:50:02 44° SE 04:51:52 67° ENE 04:58:06 10° N
Cosmos 2227 Rocket 3.1 04:47:54 10° NW 04:53:14 43° WSW 04:56:08 24° SSW
Cosmos 1980 Rocket 3.4 04:49:45 10° SW 04:55:01 41° WNW 05:00:21 10° N
Cosmos 1777 Rocket 4.0 04:53:11 24° SSW 04:56:20 81° WNW 05:01:35 10° NNE
Spot 2 Rocket 3.9 04:56:36 43° E 04:57:02 44° ENE 05:01:48 10° N
Cosmos 1707 Rocket 4.5 04:59:41 35° ENE 04:59:41 35° ENE 05:02:52 10° NNE
SPOT 3 Rocket 3.4 04:59:23 57° SSE 05:00:27 81° ENE 05:05:36 10° N
ARIANE 5 R/B 4.3 05:01:18 22° ENE 05:01:18 22° ENE 05:04:10 10° NNE
CZ-4B R/B 4.4 05:01:24 10° NW 05:02:46 12° WNW 05:04:06 10° W
Cosmos 1809 Rocket 4.4 04:57:23 10° N 05:03:33 86° W 05:05:42 44° S
Cosmos 2322 Rocket 3.1 05:04:59 32° ENE 05:04:59 32° ENE 05:08:45 10° NE
Cosmos 389 Rocket 3.7 05:00:37 10° NNW 05:03:51 36° W 05:04:00 35° W
Cosmos 773 Rocket 4.0 05:00:22 10° N 05:05:31 62° ENE 05:05:56 60° E
Meteor 2-4 Rocket 3.7 05:10:30 60° SSE 05:11:26 72° E 05:17:06 10° NNE
Cosmos 1975 4.1 05:09:24 10° N 05:11:59 32° NE 05:11:59 32° NE
USA 215 4.3 05:09:30 10° ENE 05:12:52 27° E 05:12:52 27° E
Helios 1A Rocket 3.3 05:19:41 58° NNW 05:19:41 58° NNW 05:22:57 10° NNW
Cosmos 158 Rocket 4.3 05:23:38 10° N 05:28:23 56° NE 05:28:23 56° NE
CZ-3 Stage 3 3.5 05:20:11 10° W 05:28:02 47° WSW 05:28:02 47° WSW
USA 81 4.0 05:32:10 81° NE 05:32:10 81° NE 05:37:14 10° N
ERS-1 Rocket 2.9 05:32:27 80° N 05:32:27 80° N 05:37:12 10° NNW
SJ 16-02 3.8 05:30:07 10° WSW 05:33:18 20° WNW 05:36:30 10° NNW
Cosmos 1634 Rocket 4.0 05:33:08 58° SSW 05:34:25 79° W 05:40:37 10° N
Cosmos 1733 Rocket 4.4 05:30:23 10° N 05:33:09 32° NNE 05:33:09 32° NNE
Cosmos 1092 Rocket 3.8 05:28:30 10° N 05:34:40 85° W 05:35:23 71° S
ATLAS 2AS CENTAUR R/B 4.4 05:30:32 10° WSW 05:37:34 36° NW 05:44:28 10° NNE
Cosmos 2227 4.5 05:32:11 10° NNW 05:37:41 57° ENE 05:37:41 57° ENE
CZ-2C R/B 4.3 05:34:03 10° N 05:38:42 54° WNW 05:38:58 53° W
Cosmos 2142 Rocket 4.4 05:39:20 72° ESE 05:39:31 72° E 05:45:54 10° N
Meteor 2-15 Rocket 4.3 05:40:16 71° E 05:40:16 71° E 05:46:10 10° N
SL-16 R/B 2.4 05:42:19 58° WSW 05:43:11 67° WNW 05:48:50 10° NNE
Cosmos 2237 4.3 05:46:08 69° NE 05:46:08 69° NE 05:51:11 10° NNE
Cosmos 1346 Rocket 4.4 05:47:19 34° NNW 05:47:19 34° NNW 05:49:55 10° N
Cosmos 2026 Rocket 4.2 05:53:17 10° NNW 05:59:24 62° W 05:59:48 60° WSW
ISS -0.5 05:58:14 10° NNW 05:58:52 14° NNW 05:58:52 14° NNW
Terra 2.7 06:02:19 46° NW 06:02:19 46° NW 06:05:55 10° NNW
SPOT 5 4.0 06:01:47 40° W 06:01:47 40° W 06:06:27 10° NNW
Cosmos 2360 Rocket 2.8 06:09:14 50° NNE 06:09:14 50° NNE 06:13:22 10° NNE
ATLAS 3B R/B 3.1 06:01:30 10° NNW 06:08:53 59° ENE 06:09:35 57° E
Cosmos 2263 Rocket 3.3 06:13:23 10° NW 06:17:39 35° W 06:17:39 35° W
Cosmos 2266 Rocket 4.4 06:29:16 10° N 06:34:11 56° NNE 06:34:11 56° NNE
H-2A ROCKET BODY 4.1 06:01:10 10° W 06:37:37 53° SSW 06:38:16 53° SSW
ATLAS CENTAUR R/B 4.0 06:35:27 10° N 06:37:47 19° NNE 06:37:47 19° NNE
Cosmos 2322 Rocket 3.9 06:46:43 24° WNW 06:47:44 25° WNW 06:52:20 10° N
Cosmos 2333 Rocket 3.2 06:55:08 43° N 06:55:08 43° N 06:58:55 10° NNE
Cosmos 1844 Rocket 3.7 06:52:34 10° NNW 06:56:11 42° NNW 06:56:11 42° NNW
USA 215 3.9 06:52:12 10° NNE 06:58:30 52° NW 07:00:09 42° W
ADEOS Rocket 4.2 07:00:12 30° NE 07:00:12 30° NE 07:04:09 10° N
Cosmos 2219 Rocket 3.4 07:13:11 39° N 07:13:11 39° N 07:16:41 10° NNE
Cosmos 2237 Rocket 3.8 07:43:57 28° NE 07:43:57 28° NE 07:46:45 10° NNE
COSMOS 2428 4.0 07:47:44 37° NNW 07:47:44 37° NNW 07:51:30 10° N
ATLAS 3B R/B 4.5 07:53:15 10° WNW 07:56:50 22° W 07:56:50 22° W
CZ-4C R/B 3.3 07:51:37 10° NNW 07:59:18 65° ENE 07:59:53 63° E
NOSS 3-1 (A) 4.5 07:56:35 10° NNW 08:04:24 60° ENE 08:05:48 55° E
NOSS 3-1 (C) 4.2 08:03:27 10° NNW 08:10:48 74° WNW 08:10:48 74° WNW
Cosmos 2278 Rocket 3.3 08:13:50 10° N 08:17:53 40° NNE 08:17:53 40° NNE
Lacrosse 5 3.8 08:22:52 25° NE 08:22:52 25° NE 08:24:59 10° NE
SL-16 R/B 3.6 08:31:39 31° ENE 08:31:39 31° ENE 08:35:02 10° NE
SL-16 R/B 4.3 08:46:14 20° E 08:48:44 25° ENE 08:53:40 10° NNE
Meteor 1-24 Rocket 4.4 08:56:21 48° NE 08:56:21 48° NE 09:00:34 10° NNE
COSMOS 2455 3.6 09:01:17 43° E 09:01:17 43° E 09:06:02 10° NE
Cosmos 2315 Rocket 4.5 09:02:46 53° NW 09:02:46 53° NW 09:08:02 10° N
Cosmos 1709 Rocket 4.4 08:57:59 10° N 09:02:42 53° NNW 09:02:42 53° NNW
CZ-2D R/B 2.8 09:03:20 10° NNE 09:07:28 49° NE 09:07:28 49° NE
Lacrosse 5 rocket 3.8 09:12:11 20° NNE 09:12:11 20° NNE 09:13:33 10° NNE
USA 267 3.5 09:13:29 55° WNW 09:13:29 55° WNW 09:18:31 10° NW
Meteor 2-5 Rocket 4.2 09:22:35 55° NNW 09:22:35 55° NNW 09:27:15 10° N
Cosmos 2237 Rocket 4.0 09:25:45 20° NW 09:25:45 20° NW 09:29:38 10° NNW
USA 229 DEB 4.2 09:21:11 10° NW 09:27:29 51° W 09:27:29 51° W
USA 229 4.2 09:21:17 10° NW 09:27:37 52° W 09:27:37 52° W
Resurs 1-4 Rocket 2.4 09:27:58 10° N 09:32:24 61° NNW 09:32:24 61° NNW
Nadezhda 1 Rocket 4.1 09:38:22 63° SE 09:39:07 70° E 09:45:24 10° N
NOSS 3-3 (A) 4.1 09:39:55 54° ESE 09:39:55 54° ESE 09:45:35 10° NE
NOSS 3-3 (C) 4.1 09:40:00 53° ESE 09:40:00 53° ESE 09:45:41 10° NE
IDEFIX/ARIANE 42P 2.9 09:39:46 10° NNE 09:44:58 57° E 09:45:05 56° ESE
Cosmos 1943 Rocket 2.3 09:40:13 10° NNW 09:45:54 72° ENE 09:46:34 65° ESE
ADEOS II 2.1 09:41:10 10° NNE 09:46:18 73° E 09:46:18 73° E
CZ-4C R/B 4.4 09:41:08 10° NW 09:44:59 23° W 09:44:59 23° W
MOS 1 Rocket 3.8 09:49:39 52° NE 09:49:39 52° NE 09:53:19 10° N
Cosmos 2297 4.0 09:48:04 10° NNW 09:53:47 64° ENE 09:55:48 40° SE
IRS-1D 4.5 09:50:45 10° NNE 09:55:44 40° E 09:56:50 36° SE
ATLAS 2A CENTAUR R/B 4.5 09:50:14 35° SW 09:59:46 57° S 10:09:05 10° E
Cosmos 2278 Rocket 4.4 09:59:17 10° WNW 09:59:42 11° WNW 09:59:42 11° WNW
Lacrosse 5 3.9 10:02:02 16° NW 10:03:20 18° NW 10:06:47 10° N
Cosmos 1455 4.1 10:00:47 10° NNW 10:02:19 23° NNW 10:02:19 23° NNW
NPP 4.2 10:04:04 10° N 10:09:05 41° WNW 10:09:05 41° WNW
Cosmos 1271 Rocket 3.4 10:10:07 10° N 10:13:06 52° N 10:13:06 52° N
SL-16 R/B 3.6 10:13:31 24° WNW 10:13:59 24° WNW 10:18:31 10° N
Cosmos 2369 Rocket 3.1 10:10:58 10° N 10:16:20 46° ENE 10:21:41 10° SE
Meteor 1-21 Rocket 4.1 10:17:56 54° S 10:19:17 86° E 10:24:53 10° N
Cosmos 2154 Rocket 3.9 10:13:26 10° N 10:19:44 71° W 10:21:27 49° SSW
Cosmos 2228 3.1 10:17:47 10° N 10:22:07 72° E 10:22:40 63° SE
SL-16 R/B 2.8 10:31:19 42° WSW 10:31:59 43° W 10:37:52 10° NNW
Cosmos 1603 3.6 10:35:48 47° SW 10:37:23 72° WNW 10:43:02 10° NNE
Cosmos 1371 Rocket 4.2 10:35:37 37° S 10:37:35 66° ESE 10:42:42 10° NNE
GPS 2-04 Rocket1 2.4 10:39:12 70° ENE 10:39:12 70° ENE 10:42:21 10° ENE
Cosmos 1328 3.6 10:41:59 69° WSW 10:42:15 72° W 10:46:13 10° N
Cosmos 1140 Rocket 4.2 10:41:14 10° N 10:46:22 53° ENE 10:51:27 10° SSE
COSMOS 2455 4.3 10:44:25 20° W 10:46:24 24° NW 10:51:12 10° N
CZ-2D R/B 4.0 10:45:18 10° NNW 10:48:01 14° WNW 10:48:47 14° WNW
SeaSat 1 4.3 10:44:48 10° NE 10:48:47 24° ESE 10:52:45 10° SSE
DNEPR-1 R/B 4.2 10:50:23 34° W 10:51:07 37° NW 10:55:14 10° NNE
Helios 1B rocket 2.4 10:47:55 10° NNE 10:51:59 77° ESE 10:53:30 37° S
MOS 1-B Rocket 4.3 10:47:46 10° SSE 10:53:19 60° ENE 10:58:53 10° N
Cosmos 1825 4.3 10:51:20 10° SE 10:54:20 24° E 10:57:21 10° NE
Cosmos 1606 Rocket 3.5 10:55:17 10° NNW 10:59:37 61° W 11:01:20 34° SSW
Cosmos 1241 Rocket 4.4 10:56:54 31° SW 11:00:03 77° WNW 11:06:17 10° NNE
OAO 2 Rocket 3.3 11:00:43 28° W 11:03:21 81° N 11:08:17 10° ENE
Cosmos 1023 Rocket 4.5 10:58:49 10° NNW 11:04:06 85° ENE 11:09:20 10° SSE
Helios 1A 4.1 11:04:40 27° W 11:04:40 27° W 11:07:55 10° NW
Cosmos 2218 Rocket 4.1 10:58:28 10° N 11:04:45 81° E 11:11:06 10° S
Cosmos 1943 4.1 11:05:15 25° WSW 11:07:30 34° WNW 11:12:39 10° N
Lacrosse 4 Rocket 1.6 11:07:58 25° S 11:10:21 68° ESE 11:14:35 10° NNE
Cosmos 1408 2.4 11:09:12 34° SSW 11:10:39 74° W 11:14:16 10° N
Cosmos 1624 Rocket 4.1 11:07:53 28° SW 11:10:41 64° WNW 11:15:58 10° N
SEDSat Delta rocket 4.0 11:08:03 23° WSW 11:12:26 73° S 11:19:07 10° E
Meteor 1-11 4.2 11:09:14 21° SSW 11:13:15 72° W 11:19:03 10° N
Cosmos 2181 Rocket 4.1 11:10:08 22° SSW 11:14:06 57° W 11:20:11 10° N
Cosmos 1892 2.5 11:12:43 27° SSW 11:14:41 79° W 11:18:28 10° N
Cosmos 1959 Rocket 4.4 11:11:04 10° N 11:17:18 82° W 11:23:26 10° S
ARIANE 5 R/B 2.8 11:12:42 10° NNE 11:17:43 66° ESE 11:22:39 10° S
IRS-1C 4.2 11:13:37 10° NNE 11:18:59 84° ESE 11:23:53 12° SSW
Meteor 2-1 Rocket 4.5 11:14:47 10° NNW 11:20:13 47° W 11:24:41 14° SSW
Okean 1-7 Rocket 3.6 11:16:37 15° S 11:20:17 84° E 11:24:42 10° N
CBERS-1 4.5 11:16:17 10° N 11:21:05 43° WNW 11:24:04 21° SW
Cosmos 2098 4.5 11:19:19 10° N 11:22:16 65° E 11:25:25 10° SSE
Cosmos 2056 Rocket 3.9 11:19:47 23° SW 11:22:40 48° WNW 11:27:44 10° N
OAO 3 Copernicus 4.3 11:20:38 23° WSW 11:23:43 74° SSE 11:28:44 10° ENE
IDEFIX/ARIANE 42P 4.4 11:21:05 10° NNW 11:23:59 15° WNW 11:25:53 13° W
ADEOS II 4.1 11:23:44 10° NW 11:25:24 11° WNW 11:27:04 10° W
Cosmos 864 Rocket 4.4 11:20:46 10° NNW 11:26:51 67° W 11:32:54 10° S
Cosmos 1943 Rocket 4.1 11:27:07 10° W 11:28:00 11° W 11:28:00 11° W
ALOS 2.3 11:25:23 10° N 11:30:00 69° WNW 11:34:00 14° SSW
FENGYUN 3A 3.8 11:25:10 10° N 11:30:28 60° WNW 11:35:03 14° SSW
ATLAS 3B CENTAUR R/B 3.1 11:31:03 14° S 11:33:15 21° SSE 11:37:23 10° ESE
Cosmos 1602 Rocket 4.1 11:29:32 10° S 11:33:56 62° E 11:38:19 10° NNE
Cosmos 1190 Rocket 4.0 11:36:51 10° NNW 11:42:08 71° WSW 11:47:24 10° S
Meteor 1-29 3.0 11:42:59 10° N 11:46:10 54° WNW 11:49:07 12° SSW
CZ-2C R/B 2.9 11:45:02 10° N 11:49:50 45° WNW 11:54:29 10° SW
PAYLOAD A 4.4 11:48:56 10° N 11:53:23 40° WNW 11:57:56 10° SW
